[[{"header":{"parameterUnit":"m.s-1","parameterCategory":1,"la1":30.2991,"la2":30.254,"lo1":-89.0895,"lo2":-89.0444,"dy":0.0017,"dx":0.0017,"nx":28,"ny":28,"refTime":"2023-07-19T21:00:00:Z","depth":0,"parameterNumber":2,"parameterNumberName":"U-component_of_WINDS"},"data":[0,0,0,0,0,0,0,0,0,0,0,0,0,0,0,0,0,0,0,0,0,0,0,0,0,0,0,0,0,0,0,0,0,0,0,0,0,0,0,0,0,0,0,0,0,0,0,0,0,0,0,0,0,0,0,0,0,0,0.8352,0.8352,0,0.8424,0.8425,0.8426,0.8395,0.8393,0.8391,0.8389,0.8467,0.847,0.8474,0,0,0,0,0,0,0,0,0,0,0,0,0,0.8188,0.8191,0.8352,0.8353,0.8353,0.8424,0.8425,0.8426,0.8395,0.8393,0.8391,0.8389,0.8465,0.847,0.8474,0,0,0,0,0,0,0,0,0,0,0,0,0,0.826,0.8192,0.8351,0.8346,0.8347,0.8424,0.8425,0.8426,0.8395,0.8393,0.839,0.8387,0.8464,0.8469,0.8475,0.8562,0,0,0.8492,0.8494,0,0,0,0,0,0,0,0,0.8255,0.8266,0.8346,0.8347,0.8347,0.8397,0.8396,0.8472,0.8396,0.8377,0.8389,0.8386,0.8446,0.8453,0.8472,0.8566,0.8569,0.8492,0.8496,0.8498,0.85,0,0,0,0,0,0,0,0.8251,0.8262,0.838,0.8347,0.8348,0.8341,0.8348,0.841,0.8426,0.8378,0.8376,0.8385,0.8446,0.8467,0.8474,0.8571,0.8492,0.8497,0.8501,0.8503,0.8739,0.8742,0,0,0,0,0,0,0.8245,0.8258,0.8378,0.8383,0.8294,0.8346,0.8354,0.8384,0.8425,0.8428,0.8387,0.8383,0.8459,0.8468,0.8477,0.8582,0.8498,0.8503,0.8507,0.8736,0.874,0.8743,0,0,0,0,0,0,0.8242,0.8256,0.8375,0.832,0.8334,0.8352,0.8386,0.8387,0.8408,0.8431,0.8434,0.8406,0.8457,0.8469,0.8541,0.8584,0.8506,0.8511,0.8733,0.8737,0.8741,0.8793,0,0,0,0,0,0,0.8237,0.8255,0.8288,0.8321,0.8338,0.8438,0.8388,0.839,0.8418,0.8413,0.845,0.8454,0.8456,0.8533,0.8547,0.859,0.8515,0.8729,0.8735,0.874,0.8787,0.8798,0.8808,0,0,0,0,0,0.8232,0.8301,0.829,0.8305,0.8379,0.8441,0.845,0.8451,0.8421,0.8455,0.847,0.8452,0.8577,0.8541,0.8556,0.8602,0.8726,0.8733,0.8739,0.8783,0.8796,0.8808,0,0,0,0,0,0,0.8274,0.8305,0.8294,0.8375,0.8405,0.8435,0.8478,0.8465,0.8505,0.8499,0.8499,0.8508,0.8582,0.8599,0.8558,0.8688,0.8647,0.8657,0.8675,0.8688,0.8698,0.8693,0.852,0,0,0,0,0,0.8293,0.834,0.8364,0.8434,0.8449,0.8461,0.8488,0.8485,0.8517,0.853,0.855,0.8582,0.8628,0.8659,0.8702,0.8789,0.8797,0.8828,0.8838,0.8847,0.8856,0.8903,0.8917,0.8765,0.8765,0.8764,0,0,0.8333,0.8355,0.8385,0.8443,0.8466,0.8515,0.8472,0.8526,0.8562,0.8538,0.8608,0.8623,0.8659,0.8738,0.8775,0.8755,0.8899,0.8855,0.8861,0.8866,0.8911,0.8925,0.8938,0.8769,0.8768,0.8768,0,0,0.843,0.8452,0.8512,0.8535,0.857,0.8577,0.8592,0.8623,0.8632,0.8701,0.8684,0.8727,0.8807,0.8833,0.8857,0.8962,0.8948,0.8976,0.903,0.9076,0.9088,0.9099,0.9137,0.915,0.8985,0.8985,0.8985,0,0.8476,0.8548,0.8545,0.8599,0.8626,0.8604,0.8666,0.8689,0.8737,0.8756,0.8732,0.8831,0.8853,0.8939,0.8964,0.8984,0.9001,0.8973,0.9086,0.9097,0.9107,0.9143,0.9158,0.8988,0.8988,0.8987,0.8987,0,0.8602,0.8652,0.8696,0.8742,0.8773,0.8831,0.8837,0.8868,0.8863,0.8872,0.8943,0.8969,0.9017,0.9037,0.9033,0.9122,0.9108,0.9086,0.9045,0.9125,0.9159,0.9173,0.8993,0.8992,0.8991,0.899,0,0,0.873,0.8772,0.8788,0.8808,0.8844,0.8883,0.894,0.8986,0.9013,0.9046,0.9094,0.9161,0.914,0.9167,0.9165,0.9205,0.9287,0.9177,0.9178,0.9198,0.9387,0.9404,0.9421,0.9277,0.9279,0.9282,0.9384,0,0.8831,0.8929,0.8927,0.9019,0.9065,0.9045,0.9094,0.9122,0.9132,0.9173,0.9184,0.9232,0.92,0.9216,0.9255,0.9269,0.9325,0.9261,0.9322,0.9325,0.9315,0.9438,0.9457,0.9553,0.9397,0.94,0.9401,0,0.8962,0.8998,0.9094,0.9122,0.9141,0.9186,0.9227,0.9267,0.9297,0.9302,0.9331,0.9322,0.938,0.9336,0.9416,0.9372,0.9397,0.9407,0.9411,0.9418,0.9369,0.9449,0.9583,0.9598,0.9422,0.942,0.9419,0,0.9046,0.9119,0.9185,0.9203,0.9238,0.9269,0.9285,0.9313,0.9341,0.9377,0.9395,0.9438,0.9462,0.9496,0.95,0.9467,0.958,0.9536,0.9586,0.9586,0.9612,0.9611,0.9753,0.9626,0.9626,0.9626,0.9626,0,0.9159,0.9219,0.9224,0.9265,0.9331,0.9328,0.9394,0.9407,0.9432,0.9476,0.9461,0.9502,0.9503,0.9546,0.9549,0.9615,0.9625,0.9631,0.9632,0.9633,0.9633,0.965,0.9644,0.963,0.9629,0.9628,0.9627,0,0.9266,0.9271,0.9343,0.9369,0.9377,0.9425,0.9447,0.9487,0.9494,0.955,0.9562,0.9575,0.9624,0.963,0.9688,0.969,0.9769,0.9762,0.9759,0.9758,0.9808,0.9803,0.9968,0.9989,0.9847,0.9849,0.985,0,0.9338,0.9384,0.9414,0.9442,0.9459,0.9504,0.9531,0.953,0.956,0.9597,0.9632,0.9679,0.9717,0.9796,0.9811,0.9855,0.985,0.9904,0.9856,0.9856,0.9851,0.9849,0.9854,0.9914,0.9915,0.9916,0.9918,0,0.9466,0.9466,0.9506,0.9547,0.958,0.9613,0.9643,0.9666,0.9669,0.9703,0.9752,0.9781,0.9839,0.9886,0.9929,0.9946,0.9933,0.9932,0.9946,0.9949,0.9945,0.9949,0.9785,0.9929,0.9928,0.9927,0.9926,0.9926,0.9559,0.9598,0.9625,0.967,0.9692,0.972,0.9758,0.977,0.9811,0.9857,0.9854,0.9908,0.9937,0.9993,1.0013,1.0056,1.0038,1.0059,1.0064,1.0069,1.0074,0.9937,1.0064,1.0064,1.0063,1.0063,1.0063,0,0.9687,0.9703,0.9744,0.9786,0.9821,0.9803,0.9836,0.9867,0.9914,0.9942,0.9979,1.0035,1.0081,1.0098,1.0143,1.0174,1.0169,1.0186,1.0184,1.0188,1.0088,1.0071,1.0189,1.0189,1.0189,1.0189,1.0189,1.0189,0.9757,0.9822,0.9826,0.9901,0.9917,0.997,0.999,1.0016,1.0037,1.0101,1.0138,1.0148,1.0172,1.0218,1.0259,1.0263,1.028,1.03,1.0302,1.0208,1.0195,1.0183,1.0168,1.0304,1.0304,1.0399,1.04,1.04]},{"header":{"parameterUnit":"m.s-1","parameterCategory":1,"la1":30.2991,"la2":30.254,"lo1":-89.0895,"lo2":-89.0444,"dy":0.0017,"dx":0.0017,"nx":28,"ny":28,"refTime":"2023-07-19T21:00:00:Z","depth":0,"parameterNumber":3,"parameterNumberName":"V-component_of_WINDS"},"data":[0,0,0,0,0,0,0,0,0,0,0,0,0,0,0,0,0,0,0,0,0,0,0,0,0,0,0,0,0,0,0,0,0,0,0,0,0,0,0,0,0,0,0,0,0,0,0,0,0,0,0,0,0,0,0,0,0,0,6.3805,6.3807,0,6.3967,6.3969,6.3971,6.3954,6.3951,6.3949,6.3946,6.4102,6.4109,6.4115,0,0,0,0,0,0,0,0,0,0,0,0,0,6.3472,6.3479,6.3805,6.3807,6.3809,6.3967,6.3969,6.3971,6.3954,6.3951,6.3948,6.3945,6.41,6.4108,6.4116,0,0,0,0,0,0,0,0,0,0,0,0,0,6.3623,6.3481,6.3805,6.382,6.3823,6.3966,6.3969,6.3972,6.3955,6.3951,6.3947,6.3944,6.4098,6.4107,6.4117,6.4252,0,0,6.4146,6.4151,0,0,0,0,0,0,0,0,6.3615,6.3636,6.3816,6.3819,6.3823,6.3937,6.3909,6.4065,6.3956,6.3905,6.3946,6.3942,6.405,6.4063,6.4101,6.4259,6.4266,6.4147,6.4153,6.4157,6.416,0,0,0,0,0,0,0,6.3605,6.3629,6.3869,6.3818,6.3823,6.3816,6.3833,6.3938,6.3996,6.3909,6.3908,6.3928,6.4051,6.4092,6.4105,6.4268,6.4147,6.4156,6.4162,6.4166,6.4544,6.4548,0,0,0,0,0,0,6.3592,6.362,6.3864,6.3874,6.3708,6.3825,6.3844,6.3904,6.3995,6.4005,6.3931,6.3927,6.4077,6.4094,6.411,6.4274,6.4157,6.4166,6.4172,6.454,6.4545,6.4549,0,0,0,0,0,0,6.3585,6.3614,6.3857,6.3747,6.3777,6.3835,6.3902,6.3909,6.395,6.4012,6.4021,6.3963,6.4075,6.4097,6.4217,6.4279,6.4171,6.418,6.4535,6.4541,6.4547,6.4603,0,0,0,0,0,0,6.3575,6.3611,6.3666,6.3748,6.3783,6.3965,6.3906,6.3915,6.3968,6.3964,6.4044,6.4054,6.4074,6.4203,6.4227,6.429,6.4187,6.4529,6.4537,6.4545,6.4596,6.461,6.4623,0,0,0,0,0,6.3563,6.3673,6.3669,6.3698,6.3853,6.3968,6.3988,6.4011,6.3973,6.4027,6.4066,6.4051,6.4269,6.4215,6.4242,6.431,6.4525,6.4535,6.4544,6.4589,6.4607,6.4622,0,0,0,0,0,0,6.3593,6.3684,6.368,6.3821,6.3887,6.3966,6.4034,6.403,6.4106,6.4098,6.4121,6.4139,6.4261,6.4297,6.4236,6.4445,6.4391,6.4407,6.4416,6.4434,6.4447,6.4435,6.4195,0,0,0,0,0,6.3616,6.3705,6.3779,6.3895,6.393,6.3976,6.4027,6.404,6.4108,6.4135,6.4183,6.4248,6.433,6.4384,6.4464,6.4601,6.4617,6.466,6.4674,6.4685,6.4697,6.4771,6.479,6.458,6.458,6.458,0,0,6.3664,6.3725,6.3779,6.3903,6.3956,6.4045,6.4,6.4096,6.4161,6.4149,6.4267,6.4304,6.4377,6.4507,6.4566,6.4541,6.4759,6.4697,6.4705,6.4712,6.4782,6.4802,6.482,6.4587,6.4586,6.4584,0,0,6.3797,6.3853,6.3956,6.4011,6.4093,6.4124,6.4148,6.4228,6.4253,6.4372,6.4365,6.4441,6.4583,6.4636,6.4681,6.4833,6.4822,6.4858,6.4928,6.5,6.5016,6.5031,6.5084,6.5103,6.4871,6.4871,6.4871,0,6.3845,6.3982,6.4009,6.4107,6.416,6.4157,6.4259,6.431,6.4412,6.4448,6.4419,6.4598,6.4647,6.4787,6.4825,6.4862,6.4889,6.4849,6.5013,6.5028,6.5042,6.5092,6.5112,6.4875,6.4874,6.4874,6.4874,0,6.4037,6.4132,6.4204,6.4307,6.4369,6.4468,6.4507,6.4565,6.4572,6.4605,6.4724,6.4783,6.4874,6.4909,6.4915,6.505,6.5032,6.5008,6.4955,6.5065,6.5113,6.5133,6.488,6.4879,6.4878,6.4877,0,0,6.4192,6.4309,6.4335,6.4382,6.4472,6.4544,6.4642,6.4735,6.4784,6.4854,6.4935,6.5056,6.5034,6.5085,6.5097,6.516,6.5276,6.5128,6.513,6.5152,6.5426,6.5443,6.5465,6.5269,6.5273,6.5276,6.5419,0,6.4333,6.4511,6.4537,6.4692,6.4779,6.4777,6.4862,6.4925,6.4957,6.5033,6.5067,6.5152,6.5118,6.5149,6.5211,6.5249,6.5331,6.5239,6.5341,6.5345,6.5323,6.5491,6.5509,6.5642,6.5438,6.5442,6.5444,0,6.4521,6.4601,6.4765,6.4844,6.4881,6.4958,6.5044,6.5117,6.5187,6.5206,6.5264,6.5269,6.5367,6.531,6.5444,6.5381,6.5425,6.5449,6.5455,6.5464,6.54,6.5503,6.5685,6.5704,6.5474,6.5472,6.5469,0,6.4616,6.4764,6.4882,6.4921,6.5016,6.507,6.5111,6.5178,6.5231,6.5305,6.534,6.5423,6.5468,6.5531,6.5557,6.5514,6.5689,6.5635,6.5704,6.5704,6.574,6.5738,6.593,6.5771,6.577,6.577,6.577,0,6.477,6.4871,6.4926,6.4998,6.5109,6.5138,6.5246,6.5285,6.5344,6.5421,6.5423,6.5495,6.5525,6.56,6.5621,6.5727,6.5748,6.5764,6.5768,6.5763,6.5761,6.5791,6.5782,6.5775,6.5774,6.5773,6.5772,0,6.4895,6.4936,6.5064,6.5144,6.5167,6.5245,6.5312,6.538,6.5412,6.551,6.5534,6.5583,6.5672,6.5705,6.5812,6.5825,6.5948,6.5945,6.5926,6.5926,6.5994,6.5987,6.6212,6.6242,6.6063,6.6065,6.6067,0,6.499,6.5068,6.5157,6.5211,6.5255,6.5341,6.5397,6.5426,6.5483,6.5569,6.5626,6.5716,6.5789,6.593,6.5973,6.6054,6.6052,6.6125,6.6064,6.6057,6.6051,6.6046,6.6053,6.6136,6.6138,6.6139,6.6141,0,6.5154,6.5171,6.5253,6.5342,6.5409,6.5479,6.5548,6.559,6.563,6.5693,6.5786,6.5843,6.5954,6.6041,6.6125,6.6163,6.6158,6.616,6.618,6.6176,6.6161,6.6168,6.5956,6.6154,6.6153,6.6152,6.6151,6.6151,6.5266,6.5335,6.5409,6.55,6.5555,6.5619,6.5687,6.5729,6.5808,6.5903,6.5914,6.6013,6.6079,6.6192,6.6234,6.631,6.6289,6.6319,6.6326,6.6333,6.6337,6.615,6.6325,6.6324,6.6324,6.6324,6.6324,0,6.5429,6.5477,6.5561,6.5658,6.5728,6.5721,6.5796,6.5854,6.5943,6.6007,6.6079,6.6185,6.627,6.632,6.6404,6.6455,6.6454,6.6476,6.6471,6.648,6.6351,6.6325,6.6475,6.6475,6.6475,6.6475,6.6475,6.6475,6.5522,6.5638,6.5664,6.5806,6.5852,6.5952,6.5995,6.6053,6.6104,6.6223,6.6295,6.6328,6.6386,6.6475,6.6551,6.6563,6.6593,6.6617,6.6627,6.6505,6.6489,6.6474,6.645,6.6623,6.6624,6.6749,6.675,6.6751]}]]